DELTA 1 DEB, 17024

Orbit data source: Space-Track

DELTA 1 DEB, 17024 is space debris in LEO originally from a launch on Thu, 14 Jul 1977 UTC launched from the Air Force Eastern Test Range (AFETR). Debris objects in space refer to the collection of defunct objects orbiting the Earth. Examples of debris include non-operational satellites, rocket bodies, and fragments generated from explosions, collisions, or faulty payload assembly.

Loading next visibility...
Identifier
17024, 1977-065FW
Orbit
LEO
Country
Flag of USUS
Related business
Manufacturer
Unknown
Mission
Spacecraft
Bus & Motor
Unknown
Mass
Unknown
Launch date (UTC)
1977-07-14 (49 years ago)
Launch vehicle
Unknown
Launch site
Air Force Eastern Test Range (AFETR)
Object type
Payload
Rocket body
Debris
Shape & HBR
Unknown shape, 0.1 m
Radar Cross Section
Medium (>0.1 m² and <1 m²)

Expand to show TLE details & history
Last TLE update: 10 hours ago

TLE from 10 hours ago
0 DELTA 1 DEB
1 17024U 77065FW  26263.00801896  .00001077  00000-0  23449-2 0  9999
2 17024  29.4304 131.8769 0842522  58.3740 309.6248 12.36925429568366
Epoch: 2026-09-20T00:11Z
TLE epoch observation values (Epoch: 2026-09-20T00:11:32.838Z)
Latitude
-0.00004°
Longitude
130.08163°
Altitude
1,129.941 km
Speed
7.466 km/s
True Right ascension
08h 47m 30s
True Declination
0° 00' 00"
Sunlit
Object was in daylight at epoch
Visualization orbit readout
Latitude
Unknown
Longitude
Unknown
Altitude
Unknown
Speed
Unknown
Apparent Right ascension
Unknown
Apparent Declination
Unknown
Sunlit
N/A
Visualization observer readout
Local Sidereal Time
02:39:07
Azimuth
Unknown
Elevation
Unknown
Doppler factor
Unknown
Orbital elements
Apogee altitude
2,188.975 km
Perigee altitude
857.554 km
Semi-major axis
7,901.402 km
Eccentricity
0.08425
Inclination
29.4304°
RAAN
131.8769°
Arg. of periapsis
58.374°
True anomaly
301.68046°
Mean anomaly
309.6248°
Eccentric anomaly
305.70487°
Mean motion
3.0902 °/min
Orbital period
116.5 mins
BSTAR
0.0023449
Loading maneuver chart data...
Computing Atmospheric mass density...
Loading historical data...
Loading historical data...
Loading historical data...
Loading historical data...
Loading historical data...
Loading historical data...
Loading historical data...

Documentation

Showing up to 5 results
|